Find ICEYE-X33

NORAD ID: 60548 Int'l Des: 2024-149 Owner: ICEUS/ICEYE Country: US Constellation: iceye operational
LEOCIRCULARRETROGRADESSO

当前视图

正在加载3D地球...

关于 ICEYE-X33

正在加载描述...

即将过境

Passes for default location (London). Set your location on the main map for personalized predictions.

高度历史

Loading altitude history...

两行轨道根数

1 60548U 24149CJ 26150.16870438 .00005289 00000-0 41988-3 0 9991
2 60548 97.7219 229.4135 0001167 125.0251 235.1082 15.00913596 97508
Epoch: May 30, 2026 • Age: 14 hours

当前状态

高度 593.1 km
速度 7.56 km/s
星下点 -82.32°S, 159.07°E
发射日期 Aug 16, 2024
运行时间 1.7 years
类型 earth observation

技术详情

分类 Payload
质量 80.00 kg
干质量 80.00 kg
总质量 80.00 kg
长度 0.80 m
直径 0.60 m
跨度 1.50 m
形状 Box + pan
制造商 ICEYE
平台类型 ICEYE
阶段状态 In Orbit
所有者/国家 ICEUS/ICEYE/US

Most Searched